Location: Waldport
(44.4270°N, 124.0680°W)
Time: 15:59:21
(UTC-07:00)

Amateur Radio Satellites - All Passes

Search period start: 24 April 2017 15:29
Search period end: 25 April 2017 15:29
Location: Waldport, 44.4270°N, 124.0680°W

Satellite Date Start Highest point End Downlink Frequencies (MHz)
Time Altitude Azimuth
Oscar 19 24 Apr 15:33:52 15:35:51 12° 272° (W) 15:37:51 437.125/150
YUBILEINY 24 Apr 15:41:52 15:50:15 47° 73° (ENE) 15:58:38 435.215
SO-50 24 Apr 15:44:40 15:49:01 44° 49° (NE) 15:53:19 436.795
BEESAT 24 Apr 16:01:07 16:05:45 50° 100° (E) 16:10:22 436.000
UKube-1 24 Apr 16:06:18 16:08:34 14° 299° (WNW) 16:10:50 .
MOZHAYETS 4 24 Apr 16:16:09 16:20:23 36° 97° (E) 16:24:38
BEESAT 2 24 Apr 16:29:27 16:33:17 48° 309° (NW) 16:37:14 435.950
RS-15 24 Apr 16:34:11 16:46:29 65° 47° (NE) 16:58:11 29.354- 29.394
BEESAT 3 24 Apr 16:37:17 16:40:18 20° 319° (NW) 16:43:21 437.485
ITUPSAT 1 24 Apr 16:40:03 16:44:49 71° 287° (WNW) 16:49:34 437.325
KKS-1 24 Apr 16:47:26 16:49:36 13° 90° (E) 16:51:45 437.445
ITAMSAT 1 24 Apr 16:51:49 16:55:56 23° 267° (W) 17:00:03 435.822/435.867
AO-7 24 Apr 16:58:52 17:06:22 37° 262° (W) 17:13:55 .
Tancredo 1 24 Apr 17:00:07 17:02:16 17° 225° (SW) 17:04:24 437.200
CUBESAT XI-V 24 Apr 17:01:14 17:04:40 20° 92° (E) 17:08:06 437.345
ISS 24 Apr 17:03:26 17:06:00 22° 224° (SW) 17:08:34 437.550
XW-2F 24 Apr 17:21:31 17:22:48 12° 62° (ENE) 17:24:06 145.980 - 146.000
STARS 24 Apr 17:25:37 17:28:05 15° 91° (E) 17:30:32 437.465
SO-50 24 Apr 17:25:38 17:29:13 24° 247° (WSW) 17:32:48 436.795
DOVE 4 24 Apr 17:31:36 17:36:21 34° 68° (ENE) 17:41:03 437.250
YUBILEINY 24 Apr 17:38:57 17:46:56 42° 274° (W) 17:54:58 435.215
NUDT-PHONESAT 24 Apr 17:39:18 17:41:24 15° 65° (ENE) 17:43:31 437.300
BEESAT 24 Apr 17:39:42 17:43:12 21° 297° (WNW) 17:46:40 436.000
CUTE-I 24 Apr 17:41:56 17:46:25 28° 64° (ENE) 17:50:55 437.470
MOZHAYETS 4 24 Apr 17:53:36 17:57:24 26° 294° (WNW) 18:01:11
XW-2D 24 Apr 18:07:02 18:10:32 39° 72° (ENE) 18:14:04 145.860 - 145.880
XW-2B 24 Apr 18:13:49 18:17:23 45° 73° (ENE) 18:21:00 145.730 - 145.750
LilacSat-2 24 Apr 18:21:55 18:25:38 62° 74° (ENE) 18:29:22 437.200
KKS-1 24 Apr 18:22:10 18:26:35 63° 287° (WNW) 18:30:57 437.445
XW-2C 24 Apr 18:25:29 18:29:11 65° 74° (ENE) 18:32:54 145.795 - 145.815
KAITUO 1B 24 Apr 18:28:55 18:32:32 56° 74° (ENE) 18:36:11 145.475/437.950
HO-68 24 Apr 18:36:15 18:42:20 32° 59° (ENE) 18:48:27 435.675
CUBESAT XI-V 24 Apr 18:37:45 18:42:18 47° 289° (WNW) 18:46:48 437.345
SEEDS 24 Apr 18:44:28 18:45:23 11° 60° (ENE) 18:46:18 437.485
RS-15 24 Apr 18:47:22 18:58:29 44° 252° (WSW) 19:09:09 29.354- 29.394
XW-2F 24 Apr 18:52:47 18:56:28 59° 259° (W) 19:00:10 145.980 - 146.000
STARS 24 Apr 19:00:29 19:04:47 56° 288° (WNW) 19:09:02 437.465
CUBEBUG 2 24 Apr 19:00:53 19:02:35 12° 61° (ENE) 19:04:16 437.445
DOVE 4 24 Apr 19:09:10 19:13:58 34° 265° (W) 19:18:44 437.250
NUDT-PHONESAT 24 Apr 19:11:30 19:14:59 41° 262° (W) 19:18:30 437.300
CUTE-I 24 Apr 19:21:12 19:26:16 43° 262° (W) 19:31:21 437.470
XW-2D 24 Apr 19:42:41 19:44:55 15° 268° (W) 19:47:09 145.860 - 145.880
XW-2B 24 Apr 19:50:02 19:51:50 13° 269° (W) 19:53:40 145.730 - 145.750
CUTE 1.7 + AOD 2 24 Apr 19:51:53 19:56:06 81° 75° (ENE) 20:00:21 437.475
ZACube-1 24 Apr 19:52:27 19:54:44 15° 63° (ENE) 19:57:01 437.345
STRAND 1 24 Apr 19:55:40 19:59:54 26° 94° (E) 20:04:07 437.568
AAUSAT CUBESAT 2 24 Apr 19:56:07 19:59:40 29° 69° (ENE) 20:03:17 437.432
XW-2A 24 Apr 19:56:36 19:59:57 76° 257° (WSW) 20:03:19 145.665 - 145.685
AO-73 24 Apr 20:00:24 20:02:55 16° 64° (ENE) 20:05:26 145.935
KAITUO 1B 24 Apr 20:06:11 20:06:55 10° 271° (W) 20:07:38 145.475/437.950
SEEDS 24 Apr 20:16:13 20:20:24 84° 260° (W) 20:24:38 437.485
Oscar 11 24 Apr 20:17:54 20:21:07 21° 65° (ENE) 20:24:21 .
O/OREOS (USA 219) 24 Apr 20:19:42 20:23:49 31° 57° (ENE) 20:27:52 437.305
HO-68 24 Apr 20:22:40 20:29:41 58° 258° (WSW) 20:36:46 435.675
UWE-3 24 Apr 20:25:56 20:30:07 54° 73° (ENE) 20:34:14 435.000/436.395/437.385
CUBEBUG 2 24 Apr 20:34:15 20:38:39 75° 257° (WSW) 20:42:56 437.445
M-CUBED/EXP-1 PRIME 24 Apr 20:49:15 20:53:31 62° 106° (ESE) 20:57:26 437.505
DELFI C3 24 Apr 21:01:02 21:03:38 17° 64° (ENE) 21:06:14 145.870
NO-84 24 Apr 21:17:51 21:21:27 78° 141° (SE) 21:24:44 435.350 FM
AO-85 24 Apr 21:24:56 21:28:14 25° 44° (NE) 21:31:36 145.980
ZACube-1 24 Apr 21:26:26 21:30:35 57° 260° (W) 21:34:42 437.345
AAUSAT CUBESAT 2 24 Apr 21:31:38 21:35:07 26° 266° (W) 21:38:37 437.432
STRAND 1 24 Apr 21:34:26 21:39:13 42° 292° (WNW) 21:43:59 437.568
AO-73 24 Apr 21:34:42 21:38:46 51° 260° (W) 21:42:50 145.935
BEESAT 3 24 Apr 21:38:49 21:39:12 10° 31° (NNE) 21:39:36 437.485
PRISM 24 Apr 21:50:17 21:51:25 11° 89° (E) 21:52:32 437.425
Oscar 11 24 Apr 21:52:59 21:57:00 39° 262° (W) 22:01:04 .
O/OREOS (USA 219) 24 Apr 21:59:09 22:03:09 30° 256° (WSW) 22:07:08 437.305
UWE-3 24 Apr 22:04:34 22:06:54 14° 269° (W) 22:09:12 435.000/436.395/437.385
OBJECT BX 24 Apr 22:12:35 22:16:12 80° 78° (ENE) 22:19:52 145.990 - 145.960
M-CUBED/EXP-1 PRIME 24 Apr 22:24:53 22:27:23 15° 305° (NW) 22:29:48 437.505
DELFI C3 24 Apr 22:34:17 22:38:04 43° 261° (W) 22:41:55 145.870
FO-29 24 Apr 22:51:45 22:56:07 27° 95° (E) 23:00:38 435.910
NO-84 24 Apr 22:56:39 22:59:16 21° 338° (NNW) 23:01:44 435.350 FM
TIGRISAT 24 Apr 22:57:04 23:01:00 35° 97° (E) 23:04:56 435.000
ESTCUBE 1 24 Apr 22:57:16 23:00:55 25° 66° (ENE) 23:04:35 437.505/2401.250
AO-85 24 Apr 23:05:01 23:08:42 37° 242° (WSW) 23:12:31 145.980
BEESAT 2 24 Apr 23:08:13 23:11:28 22° 42° (NE) 23:14:41 435.950
BEESAT 3 24 Apr 23:13:46 23:17:44 51° 51° (NE) 23:21:37 437.485
UNISAT 6 24 Apr 23:17:26 23:21:42 63° 101° (E) 23:25:59 437.425
VELOX 1 24 Apr 23:21:08 23:23:24 14° 60° (ENE) 23:25:41 145.980
PRISM 24 Apr 23:23:00 23:27:09 69° 288° (WNW) 23:31:16 437.425
LO-87 24 Apr 23:23:19 23:26:58 78° 74° (ENE) 23:30:37 145.935 - 145.965
AIST 2D 24 Apr 23:42:46 23:44:44 14° 92° (E) 23:46:43 435.315
POLYITAN 1 24 Apr 23:56:17 23:58:02 12° 90° (E) 23:59:48 437.675
QB50P2 25 Apr 00:02:05 00:04:39 16° 91° (E) 00:07:14 145.880/145.840
50 SAT 25 Apr 00:11:52 00:14:28 20° 67° (ENE) 00:17:04 437.505
DX 1 25 Apr 00:18:31 00:21:46 21° 64° (ENE) 00:25:02 434.975-435.025
NANOSAT C BR1 25 Apr 00:25:28 00:28:50 23° 94° (E) 00:32:13 145.865
ESTCUBE 1 25 Apr 00:33:24 00:37:33 36° 263° (W) 00:41:44 437.505/2401.250
TIGRISAT 25 Apr 00:34:10 00:37:30 23° 294° (WNW) 00:40:52 435.000
NO-84 25 Apr 00:36:29 00:37:43 12° 359° (N) 00:38:55 435.350 FM
FO-29 25 Apr 00:36:35 00:41:23 39° 292° (WNW) 00:46:21 435.910
SPROUT 25 Apr 00:36:45 00:41:00 69° 74° (ENE) 00:45:16 437.525
BEESAT 2 25 Apr 00:45:33 00:49:27 46° 241° (WSW) 00:53:19 435.950
EO-79 25 Apr 00:51:27 00:55:32 49° 100° (E) 00:59:36 145.935-145.965
BEESAT 3 25 Apr 00:52:22 00:54:55 16° 249° (WSW) 00:57:28 437.485
VELOX 1 25 Apr 00:54:50 00:59:17 71° 257° (WSW) 01:03:46 145.980
UNISAT 6 25 Apr 00:55:44 00:57:55 14° 298° (WNW) 01:00:07 437.425
DUCHIFAT 1 25 Apr 00:55:55 00:59:56 44° 99° (E) 01:03:56 145.980
AIST 2D 25 Apr 01:14:51 01:18:07 36° 288° (WNW) 01:21:22 435.315
UKube-1 25 Apr 01:24:22 01:28:39 67° 74° (ENE) 01:32:59 .
POLYITAN 1 25 Apr 01:30:05 01:34:14 62° 287° (WNW) 01:38:22 437.675
QB50P2 25 Apr 01:36:40 01:40:43 48° 288° (WNW) 01:44:46 145.880/145.840
50 SAT 25 Apr 01:44:16 01:47:15 26° 264° (W) 01:50:16 437.505
Gurwin Techsat 1B 25 Apr 01:48:46 01:50:47 12° 87° (E) 01:52:48 435.225
DX 1 25 Apr 01:53:30 01:57:40 42° 261° (W) 02:01:52 434.975-435.025
NANOSAT C BR1 25 Apr 02:00:52 02:04:35 32° 291° (WNW) 02:08:18 145.865
Oscar 19 25 Apr 02:01:01 02:05:24 27° 94° (E) 02:09:46 437.125/150
BUGSAT 1 25 Apr 02:05:45 02:09:47 87° 104° (ESE) 02:13:47 437.445
ITUPSAT 1 25 Apr 02:12:02 02:15:31 21° 62° (ENE) 02:18:59 437.325
NO-84 25 Apr 02:13:54 02:16:12 20° 21° (NNE) 02:18:25 435.350 FM
SPROUT 25 Apr 02:15:54 02:17:21 11° 271° (W) 02:18:51 437.525
EO-79 25 Apr 02:28:14 02:30:56 17° 297° (WNW) 02:33:36 145.935-145.965
PCSat 25 Apr 02:28:34 02:32:43 23° 107° (ESE) 02:36:53 145.827
DUCHIFAT 1 25 Apr 02:32:28 02:35:16 18° 296° (WNW) 02:38:05 145.980
UKube-1 25 Apr 03:03:24 03:05:08 12° 270° (W) 03:06:52 .
AO-7 25 Apr 03:07:41 03:11:17 13° 86° (E) 03:14:53 .
BEESAT 25 Apr 03:08:51 03:13:34 70° 73° (ENE) 03:18:19 436.000
MOZHAYETS 4 25 Apr 03:19:25 03:23:40 41° 70° (ENE) 03:27:57
ITAMSAT 1 25 Apr 03:23:55 03:26:35 14° 89° (E) 03:29:14 435.822/435.867
Gurwin Techsat 1B 25 Apr 03:26:06 03:31:28 90° 271° (W) 03:36:46 435.225
Oscar 19 25 Apr 03:39:58 03:44:50 41° 292° (WNW) 03:49:42 437.125/150
KKS-1 25 Apr 03:46:52 03:49:44 17° 62° (ENE) 03:52:35 437.445
ITUPSAT 1 25 Apr 03:48:23 03:52:59 50° 260° (W) 03:57:37 437.325
NO-84 25 Apr 03:51:05 03:53:56 59° 222° (SW) 03:56:44 435.350 FM
CUBESAT XI-V 25 Apr 04:06:03 04:09:43 24° 65° (ENE) 04:13:26 437.345
PCSat 25 Apr 04:10:22 04:15:41 57° 306° (NW) 04:21:04 145.827
STARS 25 Apr 04:23:42 04:26:38 18° 63° (ENE) 04:29:35 437.465
YUBILEINY 25 Apr 04:44:49 04:53:03 50° 89° (E) 05:01:20 435.215
BEESAT 25 Apr 04:49:28 04:51:50 14° 270° (W) 04:54:13 436.000
AO-7 25 Apr 04:57:13 05:05:32 69° 106° (ESE) 05:13:49 .
MOZHAYETS 4 25 Apr 04:57:31 05:00:59 21° 267° (W) 05:04:30
ITAMSAT 1 25 Apr 05:01:26 05:06:38 77° 286° (WNW) 05:11:47 435.822/435.867
Gurwin Techsat 1B 25 Apr 05:07:54 05:10:39 14° 303° (WNW) 05:13:22 435.225
KKS-1 25 Apr 05:21:26 05:25:50 56° 259° (WSW) 05:30:16 437.445
CUBESAT XI-V 25 Apr 05:42:30 05:46:51 40° 262° (W) 05:51:16 437.345
PCSat 25 Apr 05:57:32 06:00:18 14° 328° (NNW) 06:03:05 145.827
STARS 25 Apr 05:58:17 06:02:35 52° 260° (W) 06:06:55 437.465
M-CUBED/EXP-1 PRIME 25 Apr 06:03:41 06:06:15 15° 54° (NE) 06:08:49 437.505
XW-2F 25 Apr 06:24:48 06:26:26 12° 90° (E) 06:28:05 145.980 - 146.000
NUDT-PHONESAT 25 Apr 06:41:03 06:43:20 15° 92° (E) 06:45:37 437.300
YUBILEINY 25 Apr 06:42:06 06:50:03 39° 290° (WNW) 06:58:05 435.215
ITAMSAT 1 25 Apr 06:43:24 06:45:14 12° 305° (NW) 06:47:03 435.822/435.867
AO-7 25 Apr 06:50:44 06:57:43 32° 306° (NW) 07:04:44 .
RS-15 25 Apr 07:00:42 07:10:39 32° 103° (ESE) 07:20:48 29.354- 29.394
DOVE 4 25 Apr 07:06:18 07:11:00 64° 101° (E) 07:15:23 437.250
XW-2D 25 Apr 07:11:38 07:15:20 47° 99° (E) 07:19:01 145.860 - 145.880
STRAND 1 25 Apr 07:12:55 07:17:44 44° 69° (ENE) 07:22:34 437.568
XW-2B 25 Apr 07:18:29 07:22:15 55° 100° (E) 07:25:59 145.730 - 145.750
LilacSat-2 25 Apr 07:27:25 07:31:16 76° 103° (ESE) 07:35:06 437.200
XW-2C 25 Apr 07:30:17 07:34:06 79° 102° (ESE) 07:37:55 145.795 - 145.815
KAITUO 1B 25 Apr 07:32:09 07:35:55 65° 101° (ESE) 07:39:40 145.475/437.950
M-CUBED/EXP-1 PRIME 25 Apr 07:35:24 07:40:01 82° 253° (WSW) 07:44:44 437.505
CUTE-I 25 Apr 07:36:04 07:41:23 67° 102° (ESE) 07:46:40 437.470
CUTE 1.7 + AOD 2 25 Apr 07:36:44 07:38:40 13° 89° (E) 07:40:38 437.475
SO-50 25 Apr 07:40:06 07:44:42 72° 123° (ESE) 07:49:16 436.795
HO-68 25 Apr 07:48:56 07:54:49 26° 93° (E) 08:00:39 435.675
XW-2F 25 Apr 07:57:11 08:00:52 50° 287° (WNW) 08:04:34 145.980 - 146.000
SEEDS 25 Apr 07:59:34 08:02:00 15° 90° (E) 08:04:25 437.485
NUDT-PHONESAT 25 Apr 08:13:56 08:17:25 38° 288° (WNW) 08:20:52 437.300
CUBEBUG 2 25 Apr 08:24:00 08:26:56 18° 92° (E) 08:29:53 437.445
PRISM 25 Apr 08:41:30 08:42:47 11° 59° (ENE) 08:44:04 437.425
DOVE 4 25 Apr 08:45:21 08:48:05 16° 300° (WNW) 08:50:44 437.250
XW-2D 25 Apr 08:47:02 08:49:08 14° 296° (WNW) 08:51:16 145.860 - 145.880
XW-2A 25 Apr 08:49:22 08:52:44 90° 82° (E) 08:56:05 145.665 - 145.685
STRAND 1 25 Apr 08:52:57 08:57:05 24° 266° (W) 09:01:14 437.568
XW-2B 25 Apr 08:54:16 08:55:59 13° 297° (WNW) 08:57:42 145.730 - 145.750
FO-29 25 Apr 09:07:27 09:11:10 17° 59° (ENE) 09:14:41 435.910
KAITUO 1B 25 Apr 09:08:25 09:09:25 11° 298° (WNW) 09:10:25 145.475/437.950
RS-15 25 Apr 09:09:45 09:21:54 81° 306° (NW) 09:34:24 29.354- 29.394
CUTE 1.7 + AOD 2 25 Apr 09:10:40 09:14:55 62° 286° (WNW) 09:19:09 437.475
AAUSAT CUBESAT 2 25 Apr 09:11:11 09:15:11 42° 98° (E) 09:19:10 437.432
ZACube-1 25 Apr 09:13:10 09:16:31 23° 94° (E) 09:19:53 437.345
CUTE-I 25 Apr 09:17:17 09:20:54 19° 300° (WNW) 09:24:31 437.470
AO-73 25 Apr 09:20:55 09:24:23 25° 95° (E) 09:27:54 145.935
SO-50 25 Apr 09:22:14 09:25:38 20° 322° (NW) 09:29:01 436.795
SEEDS 25 Apr 09:33:50 09:38:00 53° 287° (WNW) 09:42:08 437.485
Tancredo 1 25 Apr 09:34:11 09:37:09 44° 143° (SE) 09:40:09 437.200
HO-68 25 Apr 09:35:54 09:43:01 65° 291° (WNW) 09:50:06 435.675
Oscar 11 25 Apr 09:38:16 09:42:11 32° 96° (E) 09:46:05 .
ISS 25 Apr 09:43:34 09:46:40 44° 143° (SE) 09:49:48 437.550
UWE-3 25 Apr 09:49:44 09:53:55 84° 284° (WNW) 09:58:09 435.000/436.395/437.385
TIGRISAT 25 Apr 09:57:08 10:01:11 38° 70° (ENE) 10:05:11 435.000
CUBEBUG 2 25 Apr 09:59:51 10:03:44 39° 289° (WNW) 10:07:38 437.445
DELFI C3 25 Apr 10:10:04 10:13:06 20° 93° (E) 10:16:06 145.870
PRISM 25 Apr 10:13:17 10:17:26 79° 258° (WSW) 10:21:38 437.425
UNISAT 6 25 Apr 10:17:31 10:21:53 68° 75° (ENE) 10:26:12 437.425
O/OREOS (USA 219) 25 Apr 10:34:02 10:37:46 25° 103° (ESE) 10:41:31 437.305
AAUSAT CUBESAT 2 25 Apr 10:47:23 10:50:21 19° 295° (WNW) 10:53:19 437.432
ZACube-1 25 Apr 10:49:05 10:52:52 33° 290° (WNW) 10:56:41 437.345
FO-29 25 Apr 10:49:18 10:55:44 83° 256° (WSW) 11:01:26 435.910
POLYITAN 1 25 Apr 10:50:47 10:52:41 13° 61° (ENE) 10:54:35 437.675
QB50P2 25 Apr 10:56:32 10:59:07 16° 63° (ENE) 11:01:40 145.880/145.840
AO-73 25 Apr 10:56:57 11:00:39 30° 291° (WNW) 11:04:22 145.935
Tancredo 1 25 Apr 11:10:17 11:13:09 33° 341° (NNW) 11:16:01 437.200
OBJECT BX 25 Apr 11:13:14 11:16:55 85° 102° (ESE) 11:20:35 145.990 - 145.960
PCSat 25 Apr 11:13:30 11:18:17 30° 46° (NE) 11:23:01 145.827
Oscar 11 25 Apr 11:14:36 11:18:11 25° 293° (WNW) 11:21:46 .
NANOSAT C BR1 25 Apr 11:19:10 11:22:26 22° 66° (ENE) 11:25:43 145.865
ISS 25 Apr 11:20:10 11:23:13 35° 341° (NNW) 11:26:15 437.550
RS-15 25 Apr 11:25:36 11:36:37 36° 335° (NNW) 11:47:43 29.354- 29.394
HO-68 25 Apr 11:25:46 11:29:24 15° 312° (NW) 11:33:02 435.675
TIGRISAT 25 Apr 11:34:39 11:38:00 21° 266° (W) 11:41:19 435.000
DELFI C3 25 Apr 11:44:19 11:47:58 34° 290° (WNW) 11:51:34 145.870
EO-79 25 Apr 11:45:06 11:49:07 45° 71° (ENE) 11:53:09 145.935-145.965
DUCHIFAT 1 25 Apr 11:49:00 11:52:56 40° 71° (ENE) 11:56:52 145.980
AIST 2D 25 Apr 11:50:11 11:53:39 85° 257° (WSW) 11:57:09 435.315
UNISAT 6 25 Apr 11:57:19 11:59:03 12° 271° (W) 12:00:45 437.425
O/OREOS (USA 219) 25 Apr 12:12:43 12:16:59 37° 301° (WNW) 12:21:17 437.305
LO-87 25 Apr 12:22:01 12:25:37 77° 102° (ESE) 12:29:10 145.935 - 145.965
ESTCUBE 1 25 Apr 12:23:43 12:28:01 41° 98° (E) 12:32:18 437.505/2401.250
POLYITAN 1 25 Apr 12:23:44 12:27:56 68° 259° (WSW) 12:32:08 437.675
QB50P2 25 Apr 12:30:21 12:34:29 53° 260° (W) 12:38:38 145.880/145.840
FO-29 25 Apr 12:39:04 12:41:27 12° 271° (W) 12:43:44 435.910
VELOX 1 25 Apr 12:43:59 12:47:10 19° 93° (E) 12:50:19 145.980
Tancredo 1 25 Apr 12:47:14 12:49:41 21° 1° (N) 12:52:07 437.200
NANOSAT C BR1 25 Apr 12:54:06 12:57:58 35° 263° (W) 13:01:50 145.865
BUGSAT 1 25 Apr 12:56:26 13:00:35 74° 75° (ENE) 13:04:42 437.445
PCSat 25 Apr 12:56:40 13:01:55 49° 245° (WSW) 13:07:06 145.827
ISS 25 Apr 12:57:41 13:00:19 22° 1° (N) 13:02:56 437.550
50 SAT 25 Apr 13:06:28 13:08:42 16° 93° (E) 13:10:55 437.505
Gurwin Techsat 1B 25 Apr 13:10:25 13:14:38 25° 63° (ENE) 13:18:53 435.225
Oscar 19 25 Apr 13:19:13 13:24:07 46° 69° (ENE) 13:29:04 437.125/150
AO-85 25 Apr 13:20:37 13:24:38 40° 119° (ESE) 13:28:28 145.980
EO-79 25 Apr 13:22:19 13:25:06 17° 268° (W) 13:27:55 145.935-145.965
DUCHIFAT 1 25 Apr 13:25:48 13:28:46 19° 267° (W) 13:31:44 145.980
DX 1 25 Apr 13:40:01 13:43:48 28° 96° (E) 13:47:32 434.975-435.025
RS-15 25 Apr 13:43:32 13:53:57 30° 10° (N) 14:04:10 29.354- 29.394
SPROUT 25 Apr 13:56:27 14:00:42 77° 286° (WNW) 14:04:55 437.525
ESTCUBE 1 25 Apr 14:01:02 14:04:34 23° 295° (WNW) 14:08:06 437.505/2401.250
AO-7 25 Apr 14:07:37 14:14:10 27° 52° (NE) 14:20:43 .
VELOX 1 25 Apr 14:19:36 14:23:49 44° 290° (WNW) 14:28:00 145.980
Tancredo 1 25 Apr 14:23:15 14:26:11 37° 21° (NNE) 14:29:06 437.200
SO-50 25 Apr 14:30:16 14:33:23 18° 36° (NE) 14:36:29 436.795
ISS 25 Apr 14:34:18 14:37:23 38° 21° (NNE) 14:40:27 437.550
BUGSAT 1 25 Apr 14:36:13 14:36:25 10° 271° (W) 14:36:37 437.445
50 SAT 25 Apr 14:38:35 14:41:45 32° 289° (WNW) 14:44:52 437.505
BEESAT 2 25 Apr 14:39:02 14:41:50 19° 112° (ESE) 14:44:40 435.950
BEESAT 3 25 Apr 14:41:59 14:45:48 51° 120° (ESE) 14:49:42 437.485
ITAMSAT 1 25 Apr 14:42:47 14:47:06 27° 64° (ENE) 14:51:25 435.822/435.867
UKube-1 25 Apr 14:45:28 14:49:49 84° 285° (WNW) 14:54:08 .
Gurwin Techsat 1B 25 Apr 14:49:09 14:54:17 49° 261° (W) 14:59:27 435.225
YUBILEINY 25 Apr 14:52:52 15:00:04 27° 64° (ENE) 15:07:16 435.215
Oscar 19 25 Apr 14:59:31 15:03:39 24° 267° (W) 15:07:48 437.125/150
AO-85 25 Apr 15:01:41 15:05:08 24° 316° (NW) 15:08:28 145.980
BEESAT 25 Apr 15:08:31 15:11:20 15° 91° (E) 15:14:08 436.000
DX 1 25 Apr 15:16:09 15:19:56 29° 293° (WNW) 15:23:42 434.975-435.025
